Wind_Speed
17 17 17 16 16 16 16 16 15 15 15 15 16 16 17 17 16 15 14 14 14 13 13 14 15 15 15 16 18 21 21 21 22 21 21 20 19 20 21 20 20 19 20 22 24 24 23 23 24 25 26 25 25 25 26 27 27 26 28 28 27 27 27 21 12 10 14 18 21 23 26 27 28 32 34 35 35 34 32 31 30 30 30 30 31
18 17 17 18 17 17 16 16 15 16 16 17 18 19 19 19 17 15 15 15 14 14 14 15 15 15 16 17 19 22 23 23 23 23 23 23 22 22 22 23 22 21 20 21 21 22 23 23 23 23 24 24 25 25 24 25 25 25 27 27 26 27 28 25 19 14 13 16 19 20 23 26 28 30 34 36 37 36 34 33 32 32 31 31 31
18 17 17 18 17 16 16 16 16 17 18 19 20 20 20 21 20 19 19 18 16 15 15 16 16 17 17 18 19 22 24 24 25 25 26 26 25 24 24 23 23 22 21 21 21 21 22 23 23 22 22 23 24 24 24 24 25 25 26 27 27 27 29 29 25 19 15 16 19 21 23 26 29 31 34 36 36 35 35 35 34 33 32 31 32
17 17 17 17 16 16 16 16 17 18 19 20 20 21 22 22 23 23 23 22 21 19 17 17 18 18 19 19 20 22 25 25 25 26 26 27 27 26 25 25 24 23 22 21 20 20 21 22 23 23 22 22 23 23 24 23 24 25 26 27 28 29 29 31 30 25 19 16 19 23 25 27 29 31 32 33 33 33 34 34 34 34 34 33 31
18 18 18 18 17 16 16 16 18 19 20 20 21 22 23 23 24 25 25 25 25 23 21 19 19 19 19 19 19 21 24 26 27 28 28 27 27 27 27 26 25 25 23 22 21 19 19 21 22 22 22 22 22 23 24 24 23 24 24 25 28 29 28 30 30 28 23 19 19 22 24 26 27 28 30 31 30 30 31 33 34 34 33 32 30
19 19 18 18 16 16 16 17 19 19 19 20 20 21 23 24 24 25 25 26 26 26 24 22 19 18 17 18 18 19 22 24 27 31 30 28 28 28 28 28 27 26 25 24 23 21 19 20 21 21 22 23 23 23 24 24 24 24 25 25 26 27 28 28 28 27 26 24 21 20 22 26 26 25 28 32 31 30 31 29 29 29 29 29 30
18 18 17 16 15 15 16 17 18 20 20 19 19 20 21 23 24 24 24 25 26 26 26 24 20 17 16 17 18 19 22 24 28 33 32 29 29 29 28 28 27 27 27 26 25 23 20 19 20 21 21 22 23 24 24 25 25 25 26 26 26 27 26 26 26 26 27 25 22 20 22 26 25 24 27 30 30 30 31 26 21 23 27 29 31
17 16 15 15 15 15 15 15 17 20 21 20 20 20 21 22 23 24 24 25 26 26 26 25 22 19 17 18 18 19 24 28 31 35 34 30 29 28 26 26 26 27 28 27 26 25 22 20 20 21 21 21 22 23 25 25 25 25 26 27 28 27 25 24 24 25 26 24 21 21 21 22 22 21 23 26 24 24 29 29 25 26 29 30 31
16 14 14 13 13 14 15 15 16 18 20 21 21 21 22 22 23 24 25 26 26 26 26 26 25 22 19 19 20 21 27 33 34 35 34 31 29 27 25 25 26 27 28 27 26 25 22 20 20 21 21 20 20 22 24 25 25 25 25 26 27 26 25 24 23 22 22 21 20 20 18 18 20 21 22 26 27 26 28 29 28 29 30 29 29
16 15 15 14 14 15 16 16 15 16 17 18 19 21 22 23 24 25 26 26 26 26 27 27 27 24 21 22 23 24 29 35 36 36 33 29 27 26 24 24 25 25 26 26 25 24 23 22 21 21 21 20 20 20 22 24 25 26 27 27 27 25 24 23 22 22 21 19 19 20 16 17 22 24 25 29 31 28 27 28 28 26 25 23 23
18 17 16 16 16 17 17 17 16 15 16 16 17 18 19 21 23 24 25 26 26 27 27 27 27 25 24 25 25 26 31 36 37 37 34 29 25 25 25 24 23 23 23 23 23 24 24 24 23 22 20 20 20 20 20 21 23 25 27 29 28 27 26 24 22 23 22 19 19 20 18 18 23 27 27 28 29 28 30 32 30 26 24 21 18
18 17 17 18 19 19 18 17 17 17 17 17 17 17 19 20 22 23 23 24 25 26 27 28 27 27 26 26 26 27 32 37 38 38 36 31 26 25 25 24 24 24 25 25 25 25 25 26 25 24 21 20 19 19 20 20 21 23 25 28 29 29 29 28 26 25 24 22 21 22 23 23 25 27 28 28 28 30 31 31 30 30 29 26 22
19 19 19 20 20 20 19 19 19 19 19 18 18 18 20 21 22 22 22 23 25 26 27 28 28 28 28 28 28 28 33 37 39 39 38 34 29 27 26 25 25 26 27 28 28 27 26 27 28 28 26 23 20 18 18 19 20 22 23 26 29 30 30 31 31 30 29 28 26 25 28 29 27 29 32 33 32 31 30 29 30 31 31 30 31
20 21 21 21 21 21 21 21 21 20 19 19 18 19 20 21 21 21 21 23 25 27 27 28 29 29 29 29 29 30 33 36 38 39 39 38 34 31 29 27 27 28 28 28 29 28 27 27 28 30 30 27 23 19 17 15 16 19 21 22 24 27 29 32 33 33 33 32 30 29 31 32 32 34 36 37 35 34 33 33 34 34 33 32 31
22 23 23 23 23 22 22 21 21 20 20 19 19 20 20 20 20 20 21 23 24 26 27 29 29 30 30 30 30 31 33 34 36 37 39 39 38 36 32 29 28 29 28 29 30 29 28 27 29 32 32 28 24 21 19 16 14 15 17 18 19 22 25 28 31 33 34 33 33 32 33 34 36 36 35 35 36 36 37 37 37 35 32 27 21
24 24 24 24 23 23 23 23 22 22 21 21 21 21 21 21 20 20 20 22 24 26 27 29 29 30 30 31 31 32 34 35 34 34 36 38 38 37 34 30 30 31 31 31 32 33 31 30 32 35 34 30 26 21 19 17 15 14 16 18 18 19 20 22 26 30 33 33 33 33 33 33 34 35 33 33 35 35 32 30 30 28 24 20 17
24 24 24 24 24 24 24 24 24 24 24 24 23 23 22 22 21 20 20 22 24 25 27 28 29 30 31 32 32 32 34 36 35 34 34 35 36 35 34 31 31 32 33 32 33 34 33 32 34 36 35 33 30 24 18 16 16 15 16 18 18 18 18 19 21 25 28 29 31 31 32 32 32 33 32 32 34 35 31 27 27 27 23 16 13
23 24 23 24 25 26 26 26 26 25 25 25 24 24 24 24 23 22 21 22 23 24 26 28 29 30 31 32 32 32 34 36 37 36 34 34 34 34 33 31 30 31 33 33 33 34 34 34 37 38 36 34 31 25 19 16 16 16 16 17 17 16 16 16 16 18 19 21 24 27 29 30 30 30 30 29 31 34 34 32 31 30 27 20 15
22 23 23 23 24 25 27 27 27 27 26 26 25 25 25 25 24 24 24 24 24 24 26 28 30 31 31 32 32 33 34 35 37 37 36 35 35 34 34 33 30 30 33 34 34 35 35 36 39 41 38 35 30 26 20 13 11 13 14 15 14 12 11 10 9 9 10 11 14 17 20 23 25 25 27 28 29 33 36 36 36 35 31 26 23
21 21 21 22 23 24 26 27 27 27 27 26 26 26 25 26 26 26 26 26 26 26 27 28 29 30 31 32 32 33 34 35 35 36 36 36 36 35 35 34 31 29 32 33 34 36 37 38 41 43 41 37 33 29 23 15 9 7 8 9 8 6 6 5 4 3 3 3 4 4 6 9 11 13 17 22 27 32 35 35 35 38 36 30 28
20 20 20 21 22 23 24 25 26 26 26 26 26 26 26 27 27 28 28 28 28 29 29 29 30 30 31 32 33 33 34 34 34 34 35 36 36 36 36 35 31 28 30 32 34 36 37 38 41 42 42 40 37 34 30 24 17 13 7 2 4 4 4 4 4 4 5 6 6 5 4 3 2 2 4 8 14 23 31 32 32 35 37 34 30
19 19 19 19 19 21 22 23 24 24 25 25 26 26 26 27 28 28 29 29 29 29 29 29 29 30 31 32 33 33 34 34 34 33 33 34 34 35 35 34 32 29 29 31 33 35 35 36 38 39 41 41 40 38 35 31 27 24 18 12 10 10 10 11 12 11 11 12 13 13 12 11 9 6 4 3 1 8 19 26 28 29 32 34 33
18 18 17 17 17 18 19 19 20 22 23 24 25 25 24 25 27 29 29 30 30 29 29 28 28 28 29 31 32 33 34 35 35 35 34 33 33 33 33 33 33 32 30 30 32 33 34 35 37 38 39 41 42 41 40 37 33 29 24 19 16 16 17 18 17 18 19 19 20 21 20 17 16 15 12 10 8 5 5 14 21 23 25 28 29
18 17 16 16 16 16 16 17 17 18 19 21 22 23 23 24 26 28 29 30 30 29 28 28 27 27 27 28 30 32 33 34 35 35 35 35 34 33 33 32 33 34 33 32 32 33 34 34 36 38 39 40 42 43 43 43 40 34 30 26 24 22 22 23 23 24 25 24 24 24 24 22 21 20 18 18 16 14 11 9 11 14 17 19 20
18 17 15 14 14 14 14 15 16 16 16 18 19 21 23 24 25 26 27 28 28 28 27 27 27 26 26 26 27 29 31 32 34 35 35 35 35 34 34 33 33 34 34 34 34 34 35 36 36 38 39 40 42 44 44 44 43 41 38 35 32 29 27 27 27 28 27 25 24 25 25 24 23 22 21 21 21 22 20 18 17 16 15 16 16
17 16 14 13 13 13 13 14 15 15 14 15 17 19 20 22 23 24 25 26 26 26 26 26 26 26 26 26 25 27 28 31 32 33 34 34 35 35 34 34 34 35 35 35 35 36 37 38 38 39 39 39 40 42 42 42 43 44 43 41 38 34 32 30 30 29 27 25 26 26 25 24 25 25 25 26 26 26 26 24 24 24 21 22 22
16 15 14 12 12 12 13 13 13 13 14 15 16 17 18 20 21 22 22 23 24 25 25 25 25 25 25 26 26 26 28 29 31 32 32 33 34 34 35 35 35 36 35 34 35 35 37 38 39 40 41 40 40 41 41 41 42 42 41 41 40 37 35 34 33 31 29 28 29 29 28 28 29 28 29 30 30 28 27 27 27 26 26 29 31
15 14 13 12 11 11 11 11 12 13 14 15 16 17 17 17 18 18 18 19 21 23 24 24 24 23 23 24 26 27 27 29 30 29 29 30 31 32 34 34 34 34 34 33 33 34 36 39 40 41 42 42 41 41 40 40 40 40 39 39 38 38 37 36 35 33 32 31 31 32 32 32 32 31 31 31 31 29 27 28 29 27 29 33 32
14 13 12 11 11 11 10 10 11 12 13 14 15 16 16 16 15 15 15 15 16 18 20 22 22 22 21 22 24 26 27 27 26 25 25 27 29 30 32 33 33 33 33 33 34 36 37 38 39 39 38 38 38 38 38 37 37 39 39 38 37 37 36 36 35 33 32 32 32 31 31 31 30 30 30 29 28 27 25 26 26 26 29 32 30
14 12 12 11 11 10 10 10 11 12 12 13 14 14 14 14 14 14 13 13 13 14 16 18 19 20 21 21 21 22 23 23 23 23 24 25 26 29 30 32 33 34 34 35 36 36 35 34 34 33 33 34 34 34 34 34 34 35 35 36 36 35 35 34 33 32 31 32 31 28 27 27 27 26 25 23 22 21 20 19 18 19 22 26 25
15 14 13 13 12 11 10 10 11 12 12 12 12 12 13 13 13 13 13 12 11 12 14 15 16 18 19 20 21 21 20 21 22 23 24 24 25 27 29 31 33 34 34 36 37 35 32 31 30 31 31 32 32 32 32 33 33 32 32 33 33 33 33 33 32 31 30 29 29 27 25 23 22 22 21 20 18 18 17 16 16 16 18 21 22
17 16 16 14 13 12 11 10 11 11 11 11 10 10 10 11 11 12 12 12 12 12 12 13 15 16 17 19 20 21 21 21 22 23 24 24 25 27 28 30 31 32 33 35 35 33 31 30 29 30 31 31 31 31 31 32 32 31 31 31 31 32 32 32 31 31 31 30 29 27 25 22 20 19 19 19 18 18 18 18 18 18 19 20 21
17 17 16 15 14 12 11 10 10 10 10 9 9 8 8 9 9 10 10 11 12 12 11 12 13 15 16 17 18 19 19 19 20 22 23 23 24 26 28 29 30 31 33 34 32 30 29 29 29 29 30 30 30 31 32 32 32 32 30 29 30 30 31 31 31 31 31 30 29 29 27 25 22 19 18 18 18 19 19 19 19 19 19 19 19
15 15 15 15 14 13 11 10 9 9 8 8 7 7 6 6 7 8 8 9 11 12 12 11 11 13 15 16 17 18 18 19 19 19 20 22 23 24 26 28 30 31 31 31 30 28 27 27 28 29 29 29 29 30 31 32 32 32 31 30 29 30 30 31 31 31 30 30 29 29 28 28 26 24 21 19 18 18 19 18 17 17 18 18 18
14 13 14 14 13 13 11 10 8 8 7 7 6 5 5 4 5 6 7 7 8 9 11 12 11 11 12 14 16 17 18 19 18 18 19 20 22 23 26 28 29 30 30 30 29 27 26 25 26 27 27 27 28 29 29 30 30 31 30 30 29 29 30 30 29 29 29 28 28 27 27 27 27 27 25 21 19 18 17 16 15 15 15 16 16
13 13 13 13 12 12 11 9 7 6 6 6 5 4 3 2 2 3 5 5 5 7 9 10 11 11 11 11 13 16 18 19 18 17 17 18 20 23 26 27 27 26 27 28 27 26 25 24 24 24 24 24 25 25 26 27 27 27 28 28 28 28 29 29 29 29 28 28 27 26 25 25 25 26 26 25 21 18 15 14 14 14 15 14 14
14 13 12 12 12 12 10 9 7 6 5 5 5 3 2 2 1 1 2 3 4 5 6 7 9 11 10 10 11 13 16 18 18 18 18 17 19 21 23 23 23 24 25 25 25 25 24 23 22 22 22 22 23 23 23 24 24 24 24 26 27 27 26 27 27 28 28 28 27 25 25 24 23 23 24 24 22 20 17 15 13 13 13 12 12
14 12 11 12 13 12 11 9 8 6 5 4 5 4 2 0 1 1 2 3 3 4 4 5 7 9 10 10 10 11 13 16 18 20 21 20 20 20 20 20 21 22 22 23 23 23 23 22 21 21 21 21 22 22 23 24 24 23 23 23 24 24 24 24 25 25 26 27 27 26 24 23 23 22 22 21 20 19 18 16 13 12 11 10 11
12 10 10 11 12 13 11 9 8 6 4 3 3 4 4 2 1 1 1 2 3 4 4 5 6 7 8 8 8 9 12 16 18 19 20 20 19 18 18 18 18 19 20 21 22 22 21 21 20 20 20 21 21 21 22 23 24 24 24 23 22 23 23 23 23 23 24 25 25 25 24 23 21 20 20 20 18 16 15 14 12 10 9 10 11
10 9 10 10 12 13 11 9 7 5 3 2 2 3 4 3 1 0 1 3 4 5 5 5 4 5 7 7 7 8 10 13 15 15 16 17 18 17 17 16 16 17 18 19 20 19 19 18 19 19 19 20 20 21 21 21 22 23 23 23 23 23 22 22 21 21 21 22 22 22 22 21 20 19 19 20 19 17 15 14 12 10 9 9 10
11 11 12 11 11 12 11 9 7 5 3 2 2 3 4 3 2 1 0 2 4 5 6 5 4 4 6 6 7 8 8 10 12 13 13 14 15 15 15 15 15 16 16 16 17 17 16 17 18 18 18 19 19 19 20 20 21 21 21 21 21 21 21 22 21 21 20 20 20 20 20 19 18 18 19 18 18 16 15 15 13 11 10 8 8
13 13 12 11 11 11 10 8 6 5 5 5 5 4 4 3 2 1 2 1 2 4 5 5 4 4 5 6 6 7 7 8 10 11 12 12 12 13 13 14 14 14 14 14 14 14 14 15 16 16 17 18 18 19 19 19 19 19 19 19 19 19 19 19 20 20 20 20 20 19 19 18 17 16 16 16 15 14 13 13 12 10 9 8 6
14 13 11 10 11 10 9 7 6 6 5 5 5 5 5 4 2 2 3 3 2 1 3 4 4 4 4 5 6 6 6 6 7 9 10 11 10 11 11 12 13 13 12 11 11 12 12 13 14 14 15 16 18 19 19 18 16 16 16 17 17 18 18 17 17 18 18 18 18 18 18 17 16 15 14 13 13 12 12 11 10 9 8 7 6
14 13 11 9 9 9 8 8 7 5 5 5 6 6 6 5 2 1 3 4 3 0 1 3 3 3 3 5 5 5 5 5 5 6 8 9 9 9 9 10 11 11 10 9 9 10 11 12 13 14 14 15 17 18 19 17 16 15 15 15 15 16 16 16 16 16 16 16 16 16 16 16 15 14 13 12 11 10 10 10 10 10 9 8 7
15 13 11 9 9 8 9 8 7 6 6 6 6 6 6 5 2 1 2 4 4 2 1 1 3 3 3 4 5 5 4 4 4 4 5 7 7 7 7 8 8 9 9 9 8 9 10 11 12 13 13 13 15 17 17 16 15 15 14 14 15 15 15 15 15 14 14 14 14 15 15 15 14 13 12 11 10 9 9 8 8 9 9 9 9
15 13 11 10 9 9 9 9 9 8 8 7 6 7 6 5 3 2 3 5 5 4 3 3 4 4 4 4 5 5 4 4 3 3 3 4 5 5 6 6 6 7 7 8 8 8 9 10 11 12 12 12 13 15 16 15 14 14 14 14 14 14 14 15 15 14 13 12 12 12 12 13 13 12 11 10 9 8 8 7 7 7 7 7 7
14 13 12 11 10 9 9 10 10 10 10 9 8 8 7 5 4 3 4 5 6 5 4 4 4 4 4 4 4 5 4 4 4 4 4 3 3 3 4 4 5 5 6 6 7 7 7 8 9 9 10 11 11 13 14 14 13 13 13 13 13 13 14 15 15 15 14 12 11 10 10 11 12 11 11 10 9 8 8 8 8 7 6 6 6
14 13 13 12 11 11 11 10 10 10 12 12 11 10 9 8 6 5 5 6 6 6 5 4 3 4 4 4 4 4 5 5 6 5 6 6 5 4 3 3 3 4 5 5 5 6 7 7 7 7 8 9 10 11 13 13 12 11 12 12 12 13 14 14 15 16 15 13 10 9 9 10 10 10 10 10 10 9 9 9 8 7 6 6 6
13 13 13 13 12 12 12 11 10 10 12 14 14 13 11 10 9 8 7 7 7 6 5 5 4 5 5 5 5 5 6 6 6 6 7 7 8 7 6 5 4 3 4 5 5 5 6 7 6 5 5 7 9 10 12 12 11 10 11 12 12 13 13 14 14 15 15 13 11 10 9 8 8 9 10 10 9 9 9 8 8 7 6 5 5
13 13 14 14 14 13 12 11 11 11 12 14 15 15 14 13 12 11 10 10 9 9 8 7 6 6 6 6 6 6 6 6 6 6 6 7 8 9 9 9 8 6 6 5 5 5 5 5 5 5 5 6 7 9 10 10 10 10 11 12 12 13 13 13 13 14 14 13 11 10 10 9 9 8 8 8 9 9 9 8 8 7 6 5 5
14 13 14 15 15 14 14 13 12 13 14 14 15 17 17 16 15 13 12 12 11 11 10 9 8 8 8 7 7 7 7 7 6 6 6 7 8 9 10 11 10 10 9 8 7 6 4 4 4 4 4 5 5 6 7 7 7 8 9 10 11 12 13 13 13 13 13 13 11 10 10 11 11 9 8 7 8 9 10 9 8 7 6 5 5
Wind_Direction
81 74 67 64 62 60 55 51 48 45 43 42 41 39 36 32 29 27 29 30 29 25 21 18 16 14 10 1 2 5 3 0 357 353 350 345 335 330 328 327 323 316 312 307 302 297 291 284 280 276 273 265 257 252 247 241 235 228 226 222 216 215 213 210 217 238 239 235 231 226 223 220 216 215 216 219 221 222 223 224 225 225 224 222 219
87 79 72 66 61 58 54 52 51 49 48 46 44 43 39 35 33 32 33 32 30 29 26 22 18 17 14 5 1 4 3 360 357 354 352 346 339 335 333 331 328 321 315 310 304 303 299 292 287 284 278 271 263 255 248 240 231 223 219 218 215 215 213 211 215 228 236 230 225 223 221 216 214 214 214 217 220 220 220 221 223 225 226 224 221
90 83 74 68 63 60 58 56 54 53 52 50 46 44 42 40 40 41 40 37 34 32 28 25 23 21 20 13 6 4 4 1 357 353 350 347 342 338 334 330 328 324 318 312 305 302 301 297 293 290 282 272 264 258 253 245 235 227 224 223 220 218 216 213 214 219 226 226 218 214 213 212 213 215 216 217 219 218 218 219 220 223 225 225 225
91 84 77 72 68 66 63 59 58 57 55 52 49 47 45 44 43 43 43 41 39 37 32 27 24 22 19 16 10 7 6 4 0 355 351 348 342 337 334 329 326 323 316 310 305 299 297 297 295 293 283 270 262 259 255 247 236 228 225 225 222 220 217 216 215 216 218 221 217 212 210 210 213 215 214 212 214 216 216 216 218 221 223 224 226
90 84 81 78 74 70 67 64 61 60 58 55 52 49 47 45 43 42 42 41 40 40 38 32 26 22 18 14 10 7 6 4 2 358 353 349 343 339 336 332 327 324 318 310 304 299 294 292 292 291 284 272 264 260 254 246 236 228 223 220 220 219 218 216 216 217 218 219 219 215 212 211 211 212 210 206 206 211 214 216 217 217 219 221 223
89 85 82 78 74 70 69 67 63 61 59 56 53 50 46 44 42 40 39 39 38 38 38 35 28 21 17 13 9 4 1 0 359 356 353 350 345 343 340 337 332 327 322 316 309 302 294 290 290 289 285 276 267 262 255 246 237 231 226 222 221 221 219 216 216 217 218 222 223 216 213 214 210 208 209 206 201 201 204 209 213 213 214 216 217
92 88 83 78 73 71 70 69 64 61 59 58 55 52 47 44 41 40 39 38 37 35 35 34 30 24 18 13 9 4 359 359 357 355 354 352 348 346 344 342 338 333 327 322 316 310 300 293 291 290 285 280 272 264 256 248 240 236 233 230 228 225 221 217 215 213 215 222 225 219 216 218 212 206 207 205 201 200 197 195 198 205 211 213 212
95 90 87 81 75 71 71 70 67 61 59 58 57 54 50 46 42 40 39 38 36 34 33 32 31 29 22 16 11 6 3 2 359 356 356 353 350 350 348 345 343 339 334 330 327 323 313 301 297 294 289 283 278 270 260 253 245 239 236 232 229 226 221 217 213 210 211 215 220 221 219 216 210 204 200 195 192 196 197 194 192 196 203 207 208
95 91 87 81 75 72 73 74 72 64 60 58 56 54 51 48 44 41 40 38 36 35 35 34 32 29 23 18 14 10 8 5 1 0 360 356 353 353 353 350 347 344 341 340 339 335 326 314 308 303 296 289 282 276 268 261 252 243 238 234 227 220 217 216 212 208 208 210 215 218 215 211 205 195 188 189 193 197 196 194 197 201 198 199 204
93 90 86 82 81 80 78 78 75 68 61 57 54 52 49 47 44 41 39 38 36 35 35 35 34 30 24 20 17 14 10 6 5 6 5 1 358 0 359 354 349 347 347 345 343 340 333 324 318 312 307 301 291 281 273 268 261 253 246 239 231 221 215 214 214 212 210 209 211 212 208 208 206 197 193 198 200 198 192 189 196 200 193 189 199
92 90 87 85 85 83 81 78 73 67 63 59 55 51 48 46 43 40 38 36 34 34 34 35 34 31 27 23 18 14 10 8 10 11 8 7 8 9 6 359 355 352 352 351 348 344 338 332 327 322 319 317 307 294 283 275 269 264 256 246 241 235 224 215 212 211 211 210 211 210 207 211 210 205 204 203 199 197 195 193 193 189 184 186 195
92 90 88 87 85 82 79 75 70 66 63 61 59 55 50 47 44 41 38 35 34 34 32 32 31 30 28 25 21 16 11 12 15 14 10 11 14 15 10 5 3 2 359 358 356 352 347 342 337 332 328 325 317 306 294 283 276 270 263 254 249 246 239 230 222 214 212 211 212 211 209 212 212 209 208 205 201 200 200 198 194 188 188 192 193
92 90 88 86 83 80 77 72 68 65 63 63 63 59 53 49 45 43 41 39 38 36 33 32 31 29 27 25 22 19 15 16 18 17 14 14 17 18 14 8 6 7 5 3 1 358 356 351 345 341 336 329 323 318 306 292 282 275 268 260 252 246 241 238 233 227 221 217 217 218 216 214 213 213 213 211 204 199 198 198 197 195 195 198 199
92 89 87 85 82 79 75 71 66 64 63 64 63 59 54 50 49 47 45 44 41 38 36 34 32 30 28 26 24 22 18 18 21 20 18 18 20 21 17 10 7 7 6 5 4 2 0 356 350 345 342 335 328 322 313 300 286 276 269 262 256 249 242 236 233 231 228 224 223 225 225 222 220 220 220 216 208 202 199 199 199 199 201 203 205
91 89 87 83 80 77 73 69 67 64 64 65 62 59 55 52 51 51 50 48 45 41 39 36 34 32 30 28 27 24 21 20 22 22 20 20 21 22 20 13 9 8 7 6 6 5 4 1 355 352 347 340 332 321 311 302 290 275 266 262 262 260 252 242 235 230 228 228 228 229 231 230 228 227 224 219 214 212 210 207 203 201 201 202 204
91 89 87 82 79 76 72 70 68 66 65 65 62 58 55 52 52 53 54 52 49 45 42 39 36 34 32 30 28 26 23 22 22 22 21 20 20 21 21 16 11 10 9 8 8 10 9 4 360 359 355 347 338 324 307 296 288 276 267 263 264 265 259 251 244 236 232 230 231 232 233 234 233 232 229 224 222 220 215 208 203 197 195 196 194
95 92 88 84 80 77 74 72 70 68 67 65 62 59 56 54 53 54 54 52 49 46 43 40 38 35 34 32 29 26 25 25 24 23 22 21 21 21 19 16 13 12 12 10 9 11 12 8 5 6 3 355 345 330 311 295 285 277 269 261 257 258 256 251 247 244 240 237 235 234 234 236 237 237 233 231 228 222 210 199 196 193 190 194 190
99 96 92 88 84 79 77 74 71 70 68 65 63 61 58 56 54 54 54 52 49 47 44 42 41 38 36 34 31 29 28 27 27 27 24 22 22 22 18 14 11 11 12 12 11 12 13 12 12 13 11 3 353 340 325 304 285 278 269 253 243 244 249 250 252 253 252 248 243 238 236 237 237 237 235 234 231 222 210 201 198 194 193 199 195
103 101 97 93 89 84 79 76 73 71 69 66 64 61 59 57 56 56 55 53 50 48 46 44 42 40 38 36 34 32 30 29 29 29 27 25 24 23 21 16 11 10 12 12 11 11 13 14 16 19 17 12 5 359 349 330 301 288 271 246 229 227 236 245 253 255 251 248 245 241 239 239 239 238 237 235 230 224 219 212 204 198 197 201 195
107 105 102 98 93 88 83 78 75 72 70 68 65 62 60 58 56 55 54 53 51 49 47 44 42 40 38 37 35 34 31 30 30 30 30 28 26 25 25 21 14 9 11 12 11 10 12 14 17 21 22 20 19 18 16 13 4 334 288 243 216 207 216 224 233 229 210 202 214 229 237 237 235 232 231 230 225 222 220 216 208 204 202 199 194
110 108 104 100 96 91 86 81 77 74 71 68 66 64 61 58 56 55 53 51 50 47 46 44 42 40 39 37 36 35 32 30 30 30 30 29 28 28 27 25 20 13 11 12 13 12 12 12 16 22 26 26 27 30 33 37 45 47 44 109 153 156 156 141 130 128 119 107 102 93 74 71 107 183 206 219 219 216 216 215 212 210 207 202 198
115 111 107 103 99 95 89 83 78 74 71 68 66 65 63 60 57 55 52 50 49 46 43 41 40 39 38 37 36 35 35 32 30 30 30 29 28 29 28 27 26 22 16 13 13 13 14 14 17 23 30 32 32 35 38 43 51 56 59 78 103 112 113 111 107 104 98 91 86 79 69 64 63 62 66 69 153 207 213 214 213 214 212 209 206
121 116 112 107 103 99 93 85 79 73 69 66 65 64 63 60 57 54 50 48 46 43 40 38 36 35 35 35 35 34 34 33 31 30 30 30 29 29 29 29 30 29 25 18 14 14 16 18 22 27 33 37 38 39 40 42 48 54 57 68 86 96 98 98 95 89 84 79 75 69 64 62 63 60 60 60 61 80 178 201 206 211 213 215 215
128 124 119 112 106 101 95 88 80 73 67 64 62 61 60 58 56 52 49 46 43 40 38 35 33 30 29 30 32 32 31 31 30 30 30 31 31 30 30 31 32 33 31 25 21 19 20 23 28 33 36 38 41 44 45 43 46 51 53 59 72 80 83 83 81 77 73 68 65 63 59 60 64 65 66 69 72 78 88 117 155 177 188 195 202
133 129 124 118 111 103 96 89 81 74 68 61 58 57 54 53 53 51 48 45 42 38 35 33 31 29 26 25 27 28 28 28 28 28 29 30 32 32 33 34 35 35 34 30 28 27 28 30 34 37 39 39 41 44 45 44 46 49 49 50 57 63 67 71 73 71 66 61 60 60 57 59 65 69 75 79 80 80 81 86 97 110 129 147 155
135 132 125 120 113 103 94 88 80 74 70 62 57 55 51 49 49 47 46 44 41 37 34 31 29 28 26 25 24 25 26 26 26 26 27 29 31 33 34 36 37 37 36 34 33 33 33 34 35 37 40 42 42 42 42 43 46 49 49 47 47 49 54 60 64 65 63 60 61 60 58 62 68 72 76 77 75 71 72 76 80 82 92 105 105
137 134 127 119 112 102 93 87 81 76 72 66 61 56 52 49 47 44 43 41 39 37 33 29 27 25 23 24 25 26 27 27 26 25 25 28 31 33 35 36 36 36 35 33 32 33 33 35 36 38 40 43 44 44 44 43 43 45 46 47 46 46 50 56 61 62 62 62 63 62 62 65 67 68 69 70 68 68 69 71 70 70 78 86 83
141 136 128 117 108 102 96 90 85 79 74 69 63 58 54 50 46 43 40 38 37 37 34 30 27 24 21 22 25 27 28 29 27 25 25 28 31 33 34 35 34 34 33 32 32 33 35 36 36 36 37 38 39 39 40 41 41 41 41 43 46 47 50 55 58 60 62 64 64 63 63 64 62 61 63 64 63 65 69 72 71 70 74 78 76
150 140 130 121 113 109 104 96 88 82 78 73 67 62 57 53 49 44 41 40 40 39 37 34 32 30 27 25 25 26 28 29 27 25 27 31 34 36 36 36 37 38 37 36 37 37 35 35 34 33 32 32 32 33 34 35 38 40 40 40 42 44 47 49 50 51 56 61 61 60 62 63 61 61 62 60 58 58 61 65 68 70 75 77 76
160 152 142 133 127 121 114 104 93 85 82 79 73 68 63 59 55 51 46 44 44 44 43 40 37 35 35 33 32 31 31 30 28 28 30 33 35 38 40 40 41 42 42 43 43 41 36 34 33 32 31 31 31 30 30 32 34 36 37 38 39 40 43 47 48 49 53 57 57 56 57 58 57 57 58 56 54 52 51 55 61 65 71 76 77
160 159 152 143 134 128 122 113 100 91 86 83 79 75 70 66 61 57 52 50 48 49 49 46 43 40 39 39 40 39 38 35 32 32 34 35 35 38 40 41 42 42 43 46 46 44 40 37 34 32 32 33 33 31 31 32 34 34 35 36 38 40 43 47 50 52 53 54 55 55 54 53 53 53 55 58 60 58 56 59 65 66 68 74 76
152 155 153 145 137 132 128 118 108 99 92 87 84 80 75 71 66 60 56 53 51 49 48 47 46 45 43 41 40 40 39 37 35 34 36 37 37 38 40 41 42 42 44 47 46 43 40 39 35 32 32 33 33 34 35 35 35 36 37 37 38 41 45 49 51 53 53 53 54 54 52 52 54 55 59 66 69 69 68 68 70 72 72 74 76
151 153 151 146 140 137 134 125 116 108 100 94 91 85 79 74 70 65 60 56 52 48 44 42 43 43 43 42 40 39 37 35 35 36 37 37 36 37 39 41 42 42 43 45 44 41 39 38 36 34 35 36 37 38 38 38 39 41 42 43 42 43 46 49 51 52 52 52 52 52 51 51 54 59 67 74 76 76 77 76 76 78 79 78 80
155 157 153 147 143 142 139 132 124 118 111 104 96 91 88 80 72 67 62 56 51 47 42 38 36 37 39 40 40 38 35 32 32 34 36 35 34 33 35 39 41 41 42 42 41 39 38 38 36 36 39 42 44 44 44 43 43 44 45 46 47 46 47 49 50 50 50 50 50 50 49 49 51 57 69 81 84 83 83 83 81 82 85 87 89
158 161 159 152 146 145 146 142 133 128 127 118 103 94 93 87 74 66 59 55 50 43 38 35 32 30 32 36 39 38 35 32 30 30 32 34 33 31 33 36 38 39 40 40 39 38 38 38 39 41 44 46 47 48 48 48 48 47 47 46 47 47 48 50 50 49 50 49 48 48 49 50 51 54 62 72 79 80 82 85 87 91 97 99 99
161 163 165 162 154 150 153 153 145 140 141 137 124 105 86 80 79 61 54 53 50 42 35 31 28 27 26 28 34 38 37 35 32 31 31 32 32 32 33 35 36 37 38 37 37 37 38 39 42 44 45 46 46 46 48 49 50 50 49 48 47 47 47 48 48 48 49 50 50 49 49 50 50 53 57 61 65 68 70 74 80 92 105 112 113
169 166 166 167 164 158 157 161 165 166 166 164 157 138 94 61 34 9 22 31 38 40 35 26 22 23 22 22 27 34 38 38 37 37 36 34 33 34 34 34 35 36 37 36 36 36 37 38 40 42 41 41 42 44 45 46 47 49 50 49 48 48 47 47 47 46 47 48 50 51 53 53 51 52 54 55 56 57 58 59 65 77 92 107 117
173 168 164 167 170 167 162 164 173 179 183 182 180 181 177 45 7 336 315 325 347 7 20 20 16 13 14 18 22 28 33 35 36 38 38 36 34 34 33 32 34 35 34 33 33 34 37 38 39 39 38 36 38 41 44 45 45 45 46 47 47 46 46 46 47 48 48 48 49 50 53 54 53 52 52 54 54 55 55 55 59 66 76 87 97
164 165 167 169 171 170 168 168 173 176 171 162 174 194 203 213 347 1 351 341 337 336 346 3 14 11 8 12 18 23 28 32 34 36 37 36 34 34 32 32 33 32 29 27 27 30 36 39 41 41 39 37 37 39 41 42 43 44 44 45 45 45 46 47 48 49 49 48 49 50 50 52 52 50 50 53 55 58 61 62 64 68 78 87 93
153 156 161 161 163 169 172 171 174 178 171 148 155 186 194 200 227 293 27 26 15 360 347 344 358 8 4 5 12 18 26 33 34 34 35 35 34 33 31 30 30 28 24 22 23 28 35 40 42 43 42 40 39 38 37 37 39 41 43 45 46 46 47 48 49 50 49 47 47 48 48 49 50 48 48 51 54 58 64 68 73 80 92 100 103
149 152 156 153 155 164 171 171 173 180 182 167 155 164 175 182 193 220 320 21 27 21 9 355 346 353 356 1 9 12 20 32 34 33 33 34 33 32 30 28 26 25 23 22 24 31 38 42 43 44 45 43 40 37 35 33 32 32 35 40 43 44 45 44 45 46 47 47 47 46 45 45 45 44 45 47 52 57 61 63 64 70 81 93 102
157 156 158 159 161 164 165 166 170 173 171 167 162 165 177 186 194 234 273 306 1 19 15 7 350 344 353 5 11 8 10 25 33 33 32 32 32 32 31 29 26 26 26 26 29 35 39 41 42 42 42 40 36 32 30 28 27 27 29 32 36 38 39 39 39 38 39 40 41 42 43 42 42 42 41 40 43 50 58 61 60 60 64 73 87
170 164 163 169 175 176 175 175 178 175 172 173 173 174 181 188 204 246 256 257 273 3 16 6 351 342 352 3 7 4 2 11 26 33 34 31 29 30 32 31 30 30 30 29 31 34 34 33 33 34 35 34 31 29 26 25 24 26 27 28 31 34 35 35 34 33 32 32 32 33 35 36 37 40 42 42 43 47 53 59 64 66 63 62 70
175 170 169 176 182 184 185 186 187 185 184 184 180 180 185 190 203 266 250 233 225 190 22 349 335 334 340 346 350 353 354 355 8 25 33 33 30 30 32 33 33 34 34 31 28 26 26 26 26 25 28 30 28 26 25 25 26 28 28 28 31 34 34 32 31 28 26 26 26 25 26 26 28 31 36 41 46 51 55 58 61 65 68 68 65
178 174 173 178 182 186 190 192 192 195 200 199 192 189 192 197 208 279 241 215 208 197 196 279 301 300 301 313 323 331 338 339 342 1 22 29 29 29 31 32 31 32 35 35 29 22 21 23 22 21 24 27 26 23 23 26 28 29 29 29 31 34 32 29 25 21 18 18 20 21 20 20 22 24 28 34 40 44 49 54 56 56 60 64 64
182 182 181 182 186 192 200 203 204 205 208 208 201 196 197 203 219 239 216 206 205 206 215 247 279 281 277 290 306 312 317 317 312 317 344 10 20 23 26 26 24 22 25 30 31 24 20 21 22 23 25 27 25 23 23 25 26 26 25 26 27 27 25 22 17 13 10 11 15 17 17 17 19 21 24 30 38 41 44 47 48 47 48 50 56
187 193 196 197 198 203 212 218 218 216 216 215 209 202 204 216 230 229 213 207 206 209 219 244 269 272 270 286 301 305 306 305 297 290 289 305 335 359 8 10 12 9 7 13 20 20 17 19 23 28 29 28 25 21 20 20 20 20 20 20 20 19 18 15 12 11 11 11 14 19 20 19 19 20 21 26 33 40 43 44 42 41 41 39 42
193 199 205 209 211 216 222 226 229 226 222 219 216 212 211 219 226 221 212 209 205 203 209 225 245 258 269 285 299 305 309 309 300 285 274 273 282 298 314 330 346 350 347 349 355 1 5 9 13 21 24 21 16 13 11 11 13 15 15 15 15 14 14 13 11 12 14 16 18 24 27 24 22 22 22 24 26 28 31 35 37 38 39 35 33
206 211 216 219 220 222 224 228 231 228 221 219 219 217 213 215 219 219 216 215 214 214 217 222 230 245 259 273 288 301 312 314 307 293 279 271 269 271 276 283 292 305 321 331 335 336 346 355 359 4 9 6 2 0 0 2 6 10 11 11 11 10 9 10 10 12 16 18 19 22 24 22 19 19 21 24 24 20 16 17 21 25 29 30 27
218 222 226 228 229 231 232 232 230 223 217 218 221 220 216 215 219 220 221 222 223 223 226 229 235 244 254 263 276 289 302 312 312 304 289 277 269 265 265 268 270 273 283 298 310 316 326 340 349 356 360 358 355 354 354 359 8 13 12 12 13 12 10 9 9 11 13 15 17 18 18 15 12 12 18 26 29 25 20 17 13 10 14 19 17
224 229 231 231 232 236 239 237 230 222 218 220 223 223 220 220 222 224 226 228 230 231 232 236 242 251 256 262 272 281 288 295 304 307 300 289 279 270 265 264 264 265 268 273 280 289 301 315 329 343 349 349 351 355 0 7 14 17 17 18 20 19 18 16 14 12 11 11 13 16 15 12 12 13 18 28 34 33 31 31 27 19 17 22 22
Height
830 830 829 829 828 827 827 827 827 827 826 825 823 822 820 819 817 816 814 812 810 809 807 806 804 802 801 799 798 796 794 793 791 790 788 786 785 783 781 779 778 776 774 773 771 770 769 767 766 764 764 763 763 763 762 763 764 765 766 767 768 769 771 773 774 774 774 775 776 777 779 781 783 785 787 789 790 793 795 797 799 800 802 803 805
832 832 831 830 830 829 829 829 828 828 827 826 824 822 821 819 818 816 814 812 811 809 808 806 804 803 801 800 798 796 794 792 791 789 787 786 784 782 780 778 776 774 772 771 770 768 767 765 763 762 761 761 760 760 760 760 761 761 762 764 764 766 767 770 771 772 772 773 773 775 776 778 780 781 783 784 785 788 791 793 795 797 799 800 802
834 833 832 832 831 831 831 831 830 829 828 827 825 823 822 820 818 816 815 813 811 809 808 806 805 803 802 800 799 797 795 793 791 789 787 785 783 781 779 777 775 773 771 769 768 766 765 763 761 760 759 758 757 757 757 758 758 758 759 760 761 762 764 766 767 768 769 770 771 771 773 775 776 777 778 780 782 785 787 789 791 793 795 797 799
835 834 833 833 833 833 833 832 831 830 829 828 826 825 823 821 820 818 816 814 812 810 808 807 805 804 802 801 799 798 796 793 791 789 787 785 783 780 778 776 773 771 769 767 766 764 762 761 759 758 757 756 755 755 755 755 755 755 756 757 758 759 760 762 763 764 765 767 768 768 769 771 772 773 775 777 779 782 784 786 788 789 791 794 796
836 835 835 835 835 835 835 834 832 831 830 829 828 826 824 823 821 819 817 815 813 811 809 807 806 805 803 802 801 799 797 795 792 790 787 785 782 779 777 774 772 769 767 765 764 762 760 759 757 757 756 754 753 753 753 753 753 753 754 754 755 756 757 758 759 761 762 763 764 765 767 769 770 771 772 774 777 779 781 783 784 786 788 791 793
837 837 836 836 837 837 836 835 834 832 831 830 829 827 826 824 822 821 819 816 814 812 810 808 807 806 805 804 802 801 798 796 793 790 787 784 781 778 775 772 770 767 765 763 761 760 758 757 755 754 754 753 751 751 750 750 750 750 751 752 753 754 754 754 756 758 759 760 761 763 764 766 767 769 769 770 773 775 778 780 782 784 787 789 791
838 838 838 838 839 839 838 837 835 834 832 831 830 829 827 826 824 822 820 818 816 813 811 810 809 808 807 805 804 802 800 797 794 790 787 783 780 776 773 771 768 765 763 761 759 758 756 755 754 752 751 750 749 748 747 747 746 747 748 749 750 751 751 751 753 755 756 757 758 760 761 762 764 766 767 768 770 772 774 777 779 781 784 786 788
839 840 840 840 840 840 839 838 836 835 834 832 831 830 829 827 826 824 822 819 817 815 813 812 810 809 808 806 805 803 801 798 794 790 786 782 779 776 773 770 767 764 762 760 758 756 754 753 752 750 749 748 747 746 745 744 744 744 744 745 746 747 748 749 750 751 753 754 756 757 758 760 762 764 766 767 768 769 770 772 774 777 779 782 785
841 841 841 841 841 840 839 838 837 836 835 834 833 831 830 829 827 825 823 821 820 818 815 813 811 810 809 807 806 804 801 799 796 792 787 783 779 775 772 769 766 763 760 758 756 754 753 751 750 749 747 746 744 743 743 742 742 741 742 742 742 743 745 746 747 749 750 751 753 755 756 758 760 761 762 762 762 764 766 769 771 773 775 778 783
842 842 843 843 842 841 839 838 838 837 836 835 834 833 831 830 828 827 825 823 821 819 817 815 813 811 810 809 807 805 803 800 797 793 788 784 779 775 772 769 767 764 761 758 755 753 752 750 748 747 745 743 742 741 740 740 740 740 740 740 740 739 741 743 744 746 747 748 750 752 754 756 757 757 757 757 758 761 764 766 769 772 774 777 781
844 844 844 844 842 841 840 839 839 838 837 836 835 834 833 831 830 828 826 825 823 821 819 816 815 813 812 810 808 806 804 801 797 792 788 784 780 776 773 770 768 765 762 759 756 753 750 748 746 745 743 741 740 738 737 736 737 737 737 738 738 737 737 739 740 742 744 745 747 749 751 752 753 753 753 754 756 758 759 762 765 768 772 774 776
846 846 846 845 843 842 841 840 840 839 838 838 836 835 834 832 831 829 828 826 824 822 820 818 816 815 813 811 809 807 805 801 797 792 788 784 780 777 774 772 769 766 763 759 756 753 750 747 745 743 741 740 738 736 735 734 734 734 734 735 735 734 735 736 737 739 740 742 744 745 746 747 748 749 750 752 754 755 756 759 761 763 766 767 769
848 847 847 846 844 843 843 842 841 840 840 839 837 836 835 833 832 830 829 828 826 824 822 820 818 816 814 812 810 808 805 802 797 793 789 785 781 777 775 773 770 767 764 760 757 754 750 747 744 741 740 738 736 734 733 732 731 731 732 732 732 732 732 733 734 735 737 738 739 740 740 742 742 743 745 747 749 751 753 756 757 759 760 761 763
849 849 848 847 846 845 844 843 843 842 841 840 839 837 836 835 834 832 831 830 828 826 824 822 820 818 815 813 811 809 806 803 799 795 791 787 782 778 776 774 771 768 765 762 759 755 752 749 745 741 738 736 735 733 731 730 729 729 729 729 729 729 729 730 731 732 733 734 735 736 736 738 737 738 740 743 744 746 748 749 751 753 755 757 760
851 850 849 848 848 847 846 845 845 843 843 841 840 839 837 836 835 834 833 831 830 828 826 823 821 819 817 815 812 810 808 804 801 797 793 789 784 780 777 775 773 770 767 764 761 757 753 750 747 743 738 735 733 731 730 728 727 727 726 726 726 726 726 727 728 729 730 730 731 732 733 734 735 735 737 739 741 743 744 745 746 749 752 756 759
852 852 851 850 850 849 848 847 846 845 844 843 841 840 839 838 837 836 835 833 832 830 827 825 823 821 818 816 813 811 809 805 802 798 795 791 786 782 779 777 774 771 768 766 762 759 755 751 747 743 738 734 731 728 727 725 724 724 723 723 723 723 723 724 725 726 726 727 728 729 730 731 732 734 735 737 738 741 744 746 747 749 752 755 757
854 853 852 852 852 851 850 849 848 847 845 844 843 842 841 840 839 838 837 835 833 831 829 827 825 822 820 817 815 812 810 807 804 800 796 793 788 785 782 779 776 773 770 767 764 760 757 753 749 743 738 733 729 725 723 722 721 721 720 720 719 719 720 721 722 723 723 724 725 726 727 728 729 731 732 734 735 738 741 743 744 746 749 752 754
855 855 854 854 854 854 853 851 850 849 847 846 845 844 843 842 841 840 838 837 835 833 831 829 827 824 822 819 817 815 812 809 806 802 798 795 791 787 784 781 778 775 772 769 766 762 759 755 751 744 738 734 729 724 720 719 718 717 717 717 717 717 718 719 720 720 721 722 723 723 724 725 726 727 729 731 732 734 735 737 739 742 744 747 749
857 857 857 857 856 856 855 853 852 851 849 848 847 846 845 844 843 842 840 838 837 835 833 830 828 826 824 821 819 817 814 811 808 804 801 797 793 790 787 784 780 777 773 770 767 764 760 756 751 746 740 735 729 724 719 717 715 715 716 716 716 717 717 718 719 720 720 721 722 722 723 723 723 725 726 728 729 730 731 732 735 737 739 741 745
859 859 859 859 858 857 856 855 854 853 851 850 849 848 847 846 845 843 841 840 838 836 834 832 829 828 826 823 821 818 816 813 810 807 804 800 796 793 789 786 783 780 777 773 769 765 761 757 752 747 742 737 731 725 721 717 715 715 715 716 717 718 718 719 720 721 721 722 722 723 723 724 723 724 724 725 726 727 728 730 731 732 734 738 741
860 860 861 860 860 859 858 857 856 855 853 852 851 850 849 848 846 845 843 841 839 837 835 833 831 830 828 826 823 821 818 815 812 809 806 803 799 795 792 789 786 784 780 776 772 768 764 760 756 751 746 741 735 729 725 721 717 716 717 718 719 720 720 721 722 722 723 724 723 724 725 726 725 725 726 725 724 724 726 728 729 730 732 734 737
862 862 862 862 861 860 859 859 857 856 855 854 852 851 851 850 848 846 844 842 840 838 836 835 833 832 830 828 826 823 821 818 815 812 808 805 802 798 795 792 790 786 783 780 776 772 769 765 761 756 751 746 740 734 730 726 722 721 722 722 721 722 723 723 724 724 724 725 725 725 726 727 727 727 728 727 726 725 725 726 727 729 731 732 734
863 863 863 863 862 861 860 859 858 857 856 855 854 853 853 851 849 847 845 843 841 840 838 837 835 834 832 830 828 825 823 820 817 814 811 808 804 801 799 796 792 789 786 784 781 777 774 770 766 761 755 750 745 740 736 732 728 727 727 727 726 725 726 726 726 726 726 727 727 727 728 730 730 730 730 729 728 727 726 726 726 728 730 732 733
863 864 863 863 862 862 861 860 859 859 858 857 856 855 854 852 850 848 846 844 843 842 840 839 837 835 834 832 830 828 825 822 820 817 813 810 807 804 801 798 795 792 789 787 784 781 777 773 769 765 760 755 750 745 742 739 736 732 732 732 730 729 729 728 729 729 730 731 731 731 732 733 733 732 732 732 731 730 730 729 728 728 729 730 732
864 864 864 864 863 862 862 861 860 860 859 859 857 856 854 853 851 849 848 846 845 844 843 841 840 838 836 834 832 830 827 825 822 819 816 813 809 807 804 801 798 795 792 789 787 784 780 776 772 768 763 759 754 749 747 746 743 740 738 737 734 734 734 733 732 732 734 736 736 735 737 737 737 737 736 735 734 733 733 733 732 732 731 730 732
864 864 864 864 863 863 862 861 861 861 861 860 858 856 855 854 852 851 850 849 848 847 845 844 842 840 838 836 834 832 829 827 824 821 818 815 812 809 806 803 801 798 795 792 790 786 783 779 775 771 767 764 760 755 753 752 749 746 745 744 742 741 740 738 737 737 739 740 740 740 741 742 741 741 740 738 737 737 738 738 737 737 736 734 734
865 864 864 864 864 864 863 863 862 862 861 860 859 857 856 855 854 853 852 851 850 849 847 846 844 842 840 838 836 834 831 829 826 823 821 818 815 812 809 806 804 801 797 795 792 789 786 782 779 775 771 767 764 761 759 757 755 753 752 752 751 750 747 745 744 744 745 745 745 746 746 745 744 744 743 742 742 743 744 743 742 742 742 739 739
865 865 865 865 864 864 864 864 864 863 862 861 859 858 857 856 856 855 854 853 852 851 849 848 846 844 843 840 838 836 833 831 828 826 824 821 818 815 812 809 807 804 801 798 796 793 789 785 781 778 775 771 769 766 764 763 762 760 759 758 758 756 754 752 750 750 750 751 750 750 750 749 748 749 748 747 748 749 749 748 748 748 747 745 745
865 865 865 865 865 865 865 865 864 863 862 861 860 859 859 858 858 857 856 856 855 853 852 850 849 847 845 843 841 838 836 834 833 831 828 825 822 819 816 813 811 808 805 803 799 795 792 788 785 783 780 778 776 773 772 771 768 766 765 764 764 763 761 758 757 757 756 755 755 755 755 754 754 753 752 752 753 754 753 753 753 754 753 751 753
865 865 865 866 866 866 866 865 864 863 863 862 861 861 860 860 859 859 858 857 856 855 854 853 851 850 848 846 844 842 840 838 837 834 831 828 826 823 820 818 815 812 809 806 802 799 796 794 792 791 788 786 783 781 780 778 775 773 772 772 770 769 767 765 764 764 762 761 761 761 760 759 759 758 758 758 758 758 758 758 757 758 758 758 760
865 865 866 866 866 866 866 865 864 864 863 862 862 862 862 861 861 860 859 859 858 857 856 855 854 852 851 849 847 845 843 841 839 836 833 831 828 826 823 821 818 815 813 809 805 803 802 800 799 797 794 791 789 788 786 784 781 780 779 778 778 776 774 772 770 769 768 767 766 765 765 764 764 764 763 763 763 762 762 762 762 762 763 764 765
864 865 866 866 866 866 866 865 865 864 864 864 864 864 863 863 862 861 861 860 859 858 857 856 855 854 852 851 849 847 845 843 840 838 835 833 831 829 826 824 821 819 816 812 809 808 807 805 803 801 799 796 795 794 792 790 788 787 786 785 784 782 780 778 776 774 773 771 770 770 769 769 769 768 767 767 767 767 767 767 767 768 768 769 770
864 865 865 866 866 866 866 865 865 865 865 865 865 865 865 864 863 863 862 861 860 859 858 857 856 855 853 852 850 848 846 845 842 840 838 836 834 832 829 827 824 821 818 814 813 812 811 809 808 806 804 802 800 798 797 795 793 792 791 790 789 788 786 784 781 779 778 777 776 775 774 774 773 772 772 771 771 772 772 773 773 774 774 775 776
864 865 865 866 866 866 866 866 866 866 866 866 866 866 865 865 864 864 863 862 861 860 859 858 857 856 854 853 852 850 848 846 844 842 840 838 836 834 832 829 826 824 821 818 817 816 815 813 812 810 809 807 805 803 802 800 798 796 796 795 794 793 791 788 786 784 784 783 782 780 780 779 778 776 776 776 776 777 777 778 779 779 780 780 781
864 865 865 865 866 866 866 866 866 866 866 867 867 866 866 866 865 865 864 863 862 861 859 858 857 856 855 854 853 851 849 848 846 844 842 840 839 836 834 831 828 826 824 823 821 820 819 817 816 815 813 812 810 808 806 805 803 802 801 800 799 797 794 792 791 790 789 788 787 786 785 784 783 782 781 780 780 781 781 782 783 784 784 785 786
864 864 865 865 866 866 866 866 867 867 867 867 867 867 866 866 866 865 865 864 863 861 860 859 858 857 856 855 854 852 851 849 847 845 844 842 840 838 835 833 831 830 828 827 825 824 822 821 820 819 817 816 814 813 811 809 808 807 806 804 802 800 798 797 795 794 793 792 792 791 790 789 788 787 786 785 785 785 786 786 787 787 788 789 790
864 864 865 865 866 866 867 867 867 867 867 868 868 867 867 867 866 866 865 864 863 862 861 860 859 858 857 856 855 854 852 851 849 847 845 843 842 839 837 836 835 834 832 831 829 827 826 824 823 822 820 819 818 816 815 813 812 811 809 807 806 804 802 801 800 798 798 797 796 795 794 794 793 792 791 790 790 790 790 790 790 790 791 792 793
863 864 864 865 866 866 867 867 867 867 867 868 868 867 867 867 866 866 865 864 864 863 862 861 860 859 858 857 856 855 853 852 850 848 846 844 843 841 840 839 838 837 835 834 833 831 829 828 826 825 823 822 821 819 818 816 815 813 812 810 808 807 806 805 803 802 801 800 800 799 798 798 797 797 796 795 795 795 794 794 794 794 794 795 795
863 864 864 865 865 866 866 867 867 867 867 867 867 867 867 867 866 866 865 865 864 863 862 862 861 860 859 858 857 855 854 853 851 849 848 846 845 844 843 842 840 839 838 837 835 834 832 831 829 828 826 825 824 822 821 819 817 816 814 813 811 810 809 808 807 806 805 804 804 803 802 802 801 801 800 800 799 799 799 799 799 799 799 799 799
863 864 864 865 865 866 866 867 867 867 867 867 867 867 867 867 866 866 865 865 864 863 862 862 861 860 859 858 857 856 855 854 852 851 850 848 847 846 845 844 842 841 840 839 838 836 835 834 832 831 829 828 827 825 824 822 821 819 817 816 814 813 812 811 810 809 809 808 807 807 806 806 805 805 804 803 803 803 803 802 802 802 802 803 803
863 864 864 865 865 866 866 867 867 867 867 867 867 867 867 866 866 866 865 865 864 863 863 862 861 860 860 859 858 857 856 855 854 853 851 850 849 848 847 846 844 843 842 841 840 839 837 836 835 834 832 831 830 828 827 825 824 822 821 819 818 817 816 815 814 813 812 811 811 810 809 809 808 807 807 806 806 806 806 806 806 806 806 806 806
863 864 865 865 865 866 866 866 867 866 866 867 866 866 866 866 866 866 865 865 864 864 863 862 861 860 860 859 858 858 857 856 855 854 853 852 851 849 848 847 846 845 844 843 842 841 840 838 837 836 835 833 832 830 829 828 826 825 824 822 821 820 819 818 817 816 815 815 814 813 812 811 810 810 809 809 808 808 808 808 808 808 808 808 808
863 864 865 865 865 866 866 866 866 866 866 866 866 866 866 866 866 865 865 864 864 863 863 862 861 860 860 859 859 858 857 857 856 855 854 853 852 851 850 849 847 846 845 844 843 842 841 840 839 838 837 835 834 832 831 830 828 827 826 825 824 823 821 821 820 819 818 817 817 816 815 814 813 812 812 811 811 810 810 810 809 809 809 809 809
863 864 864 865 865 866 866 866 866 866 866 866 866 866 866 866 865 865 864 864 863 863 863 862 861 861 860 859 859 858 858 857 856 856 855 854 853 852 851 850 849 848 846 845 845 844 843 842 841 840 838 837 836 834 833 832 830 829 828 827 826 825 823 822 822 821 820 820 819 818 817 816 815 815 814 813 813 812 812 812 812 811 811 811 811
863 863 864 864 865 865 865 866 866 866 866 866 866 865 865 865 865 864 864 863 863 863 862 862 861 861 860 859 859 858 858 857 856 856 855 854 853 853 852 851 850 849 848 847 846 845 844 843 842 841 840 839 838 836 835 834 832 831 830 829 828 827 826 825 824 823 822 821 820 819 819 818 817 817 816 815 815 814 814 814 814 814 813 813 813
862 863 863 864 864 865 865 865 865 865 865 865 865 865 865 865 865 864 863 863 863 862 862 862 861 860 860 859 859 858 857 857 856 856 855 855 854 853 852 851 851 850 849 848 847 846 845 844 843 842 841 840 839 838 837 835 834 833 832 831 830 829 828 827 826 825 824 823 822 821 820 820 819 818 818 817 817 816 815 815 815 815 815 815 814
862 862 863 863 863 864 864 864 864 864 864 864 864 864 864 864 864 864 863 863 862 862 862 861 861 860 860 859 859 858 857 857 856 855 855 854 854 853 852 852 851 850 849 848 847 847 846 845 844 843 842 841 840 839 838 837 836 835 833 833 832 831 830 828 827 826 825 824 823 822 821 821 820 820 819 819 818 817 817 816 816 816 816 815 815
861 861 862 862 863 863 863 863 863 863 863 863 863 863 863 863 863 863 862 862 862 861 861 861 860 860 859 859 858 857 857 856 855 855 854 854 853 853 852 852 851 850 849 849 848 847 846 845 844 844 843 842 841 840 839 838 837 836 835 834 833 832 831 830 828 827 826 825 824 823 822 822 821 821 820 820 819 819 818 818 817 817 817 816 816
860 860 861 861 861 862 862 862 862 862 862 862 862 862 862 862 862 862 862 861 861 861 860 860 860 859 859 858 857 857 856 855 855 854 854 853 853 852 852 851 851 850 849 849 848 847 846 846 845 844 843 843 842 841 840 839 838 837 836 835 834 833 832 831 830 828 827 826 825 824 823 823 822 822 821 821 820 820 820 819 819 818 818 817 817
859 859 860 860 860 860 861 861 861 860 860 861 861 861 861 861 861 861 861 860 860 860 859 859 859 858 858 857 856 856 855 854 854 853 852 852 851 851 851 850 850 849 849 848 848 847 846 846 845 844 843 843 842 841 840 839 838 838 837 836 835 834 833 832 831 830 828 827 826 825 825 824 823 823 822 822 821 821 820 820 819 819 818 818 818
857 858 858 858 859 859 859 859 859 859 859 859 859 859 859 859 859 859 859 859 859 858 858 858 857 857 857 856 855 855 854 853 853 852 851 851 850 850 849 849 848 848 848 847 847 846 846 845 845 844 843 843 842 841 841 840 839 838 837 836 836 835 834 833 832 831 830 829 828 826 826 825 824 823 823 822 822 821 821 820 820 820 819 819 819